Regional Weather Roundup
Issued by NWS

Home | Current Version | Previous Version | Graphics & Text | Print | Product List | Glossary On
Versions: 1 2 3 4 5 6 7 8 9 10 11 12 13 14 15 16 17 18 19 20 21 22 23 24 25 26 27 28 29 30 31 32 33 34 35 36 37 38 39 40 41 42 43 44 45 46 47 48 49 50
000
ASUS43 KOAX 010302
RWRNE

WEATHER ROUNDUP FOR NEBRASKA
NATIONAL WEATHER SERVICE OMAHA NE
1000 PM CDT SAT APR 30 2016

NOTES: SATELLITE DATA IS BEING USED TO AUGMENT CLOUD COVER ABOVE
       12000 FEET.
       "FAIR" INDICATES FEW OR NO CLOUDS BELOW 12,000 FEET WITH NO
       SIGNIFICANT WEATHER AND/OR OBSTRUCTIONS TO VISIBILITY.

  * THESE STATIONS DO NOT REPORT WEATHER SUCH AS RAIN...SNOW OR FOG.

NEZ001>004-019>022-054>056-010400-
NEBRASKA PANHANDLE

CITY           SKY/WX    TMP DP  RH WIND       PRES   REMARKS
SCOTTSBLUFF    CLOUDY    38  38 100 N13       30.15R WCI  30
ALLIANCE       MIX PCPN  34  33  96 N17       30.09R WCI  23
CHADRON        LGT RAIN  42  35  76 NE12      30.15R
KIMBALL        LGT SNOW  33  33  99 N17       30.12R WCI  22
SIDNEY         LGT SNOW  34  32  92 N23       30.08R FOG     WCI  22
$$

NEZ057>060-069>072-079>082-010400-
SOUTHWEST NEBRASKA

CITY           SKY/WX    TMP DP  RH WIND       PRES   REMARKS
NORTH PLATTE   CLOUDY    35  33  92 N15       29.96R WCI  25
IMPERIAL       LGT RAIN  35  33  92 N18       30.00R FOG     WCI  24
LEXINGTON      DRIZZLE   39  36  91 N13       29.92R WCI  31
MCCOOK         CLOUDY    38  34  85 N14       29.95R WCI  30
$$

NEZ005>010-023>029-035>040-094-010400-
NORTH CENTRAL NEBRASKA

CITY           SKY/WX    TMP DP  RH WIND       PRES   REMARKS
VALENTINE      LGT RAIN  39  36  89 NE25G36   30.07R WCI  28
AINSWORTH      LGT RAIN  38  37  95 NE23G35   30.03R WCI  28
BROKEN BOW     LGT RAIN  41  39  93 N16G28    29.92R
ORD            LGT RAIN  43  41  93 NE16      29.91R
$$

NEZ041-046>049-061>064-073>077-083>087-010400-
SOUTH CENTRAL NEBRASKA

CITY           SKY/WX    TMP DP  RH WIND       PRES   REMARKS
GRAND ISLAND   LGT RAIN  46  45  96 N9        29.87R FOG
AURORA         CLOUDY    47  47  98 NE10      29.86R
HASTINGS       CLOUDY    45  43  93 NW10      29.86R
HEBRON         CLOUDY    49  46  88 NW7       29.85R
HOLDREGE       CLOUDY    40  38  91 NW10G17   29.90R WCI  34
KEARNEY *      CLOUDY    43  39  87 NW12      29.89R
YORK           LGT RAIN  46  46 100 NE12      29.84R
$$

NEZ011>018-030>034-042>045-010400-
NORTHEAST NEBRASKA

CITY           SKY/WX    TMP DP  RH WIND       PRES   REMARKS
NORFOLK        LGT RAIN  43  41  93 NE15      29.91R FOG
ALBION         RAIN      43  42  94 NE14G22   29.90R
BLAIR          CLOUDY    48  47  95 NE14      29.85R FOG
COLUMBUS *     CLOUDY    46  37  71 NE15      29.87R
FREMONT        CLOUDY    47  47 100 NE12G17   29.86R FOG
TEKAMAH        CLOUDY    48  45  89 NE15      29.88R
WAYNE          LGT RAIN  44  42  95 NE22G28   29.94R
$$

NEZ050>053-065>068-078-088>093-010400-
SOUTHEAST NEBRASKA

CITY           SKY/WX    TMP DP  RH WIND       PRES   REMARKS
LINCOLN        LGT RAIN  51  49  92 NE7       29.85R FOG
OMAHA EPPLEY   LGT RAIN  50  47  89 E17       29.85R
BEATRICE       CLOUDY    51  47  86 SW7       29.84R
FALLS CITY     CLOUDY    56  49  77 W7        29.83R
NEBRASKA CITY  CLOUDY    52  52 100 CALM      29.83R
$$

NEZ044-045-051>053-067-010400-
OMAHA AREA

CITY           SKY/WX    TMP DP  RH WIND       PRES   REMARKS
OMAHA EPPLEY   LGT RAIN  50  47  89 E17       29.85R
BLAIR          CLOUDY    48  47  95 NE14      29.85R FOG
FREMONT        CLOUDY    47  47 100 NE12G17   29.86R FOG
OFFUTT AFB     LGT RAIN  50  50 100 NE8       29.83R
WAHOO          CLOUDY    49  47  94 NE9       29.85R FOG
$$




USA.gov is the U.S. government's official web portal to all federal, state and local government web resources and services.